Погода в Соболеве

Россия / Ивановская область     57°15′39″N   43°01′27″E
темп.,
°C
ветер,
м/с
пор.,
м/с
влажн.,
%
обл.,
%
осадки,
мм/ч
давл.,
гПа
погр.,
м
13 апреля, вт
вт1300:00+3вюв4710095 0.0 1034102
03:00+3юв379982 0.0 1033112
06:00+2юв37100100 0.1 1032104
09:00+3ююв47100100 0.1 1031115
12:00+6ююв479898 0.0 1030122
15:00+8ююв4987100 0.0 1028318
18:00+7ююв468386 0.0 102751
21:00+6ююв588330 0.0 102766
14 апреля, ср
ср1400:00+6ю488192 0.0 102688
03:00+4ю478520 0.0 102668
06:00+4ююв468548 0.0 102662
09:00+6ююв587981 0.0 1025136
12:00+9ююв587180 0.0 1024269
15:00+9ююв586554 0.0 1022390
18:00+9ююв456964 0.0 102154
21:00+6ю4477100 0.0 102135
15 апреля, чт
чт1500:00+6ю3379100 0.0 102019
03:00+5ю3381100 0.0 102013
06:00+4ю2282100 0.0 102011
09:00+6ю1176100 0.0 101990
12:00+7юв1272100 0.0 1019215
15:00+7св2277100 0.0 1019105
18:00+8ссв61078100 0.0 1020160
21:00+5ссв71290100 0.0 1022215
16 апреля, пт
пт1600:00+4св61191100 0.0 1022229
03:00+3св61188100 0.0 1023240
06:00+3св61189100 0.0 1024243
09:00+4св51083100 0.0 1025268
12:00+5всв5972100 0.0 1026315
15:00+6всв586657 0.0 1026370
18:00+5всв476884 0.0 1026116
21:00+3всв497069 0.0 1027103
17 апреля, сб
сб1700:00+2св477748 0.0 102895
03:000ссв468337 0.0 102870
06:000ссв478469 0.0 1028108
09:00+3ссв47710 0.0 1029202
12:00+5ссв47571 0.0 1029512
15:00+6ссв57565 0.0 1029626
18:00+6ссв59615 0.0 1029231
21:00+3ссв59725 0.0 1030122